This is the latest recevied weather packets stored in our database for station/object WC4PEM-10. If no packets are shown the sender has not sent any weather packets the latest 1 day(s).
| Time | Temp. | Humidity | Pressure | Rain* | Wind** | Luminosity | Snow |
|---|---|---|---|---|---|---|---|
| 1778030787 | 22.78° C | 69% | 1015.2 hPa | 0 mm | - | - | - |
| 1778030487 | 23.33° C | 69% | 1015.2 hPa | 0 mm | - | - | - |
| 1778030445 | 23.33° C | 69% | 1015.1 hPa | 0 mm | - | - | - |
| 1778030187 | 23.33° C | 69% | 1015.1 hPa | 0 mm | - | - | - |
| 1778029887 | 23.33° C | 69% | 1015.1 hPa | 0 mm | - | - | - |
| 1778029695 | 23.33° C | 68% | 1014.9 hPa | 0 mm | - | - | - |
| 1778029587 | 23.33° C | 68% | 1014.9 hPa | 0 mm | - | - | - |
| 1778029287 | 23.89° C | 68% | 1014.9 hPa | 0 mm | - | - | - |
| 1778028987 | 23.89° C | 68% | 1014.8 hPa | 0 mm | - | - | - |
| 1778028932 | 23.89° C | 68% | 1014.7 hPa | 0 mm | - | - | - |
| 1778028687 | 23.89° C | 68% | 1014.7 hPa | 0 mm | - | - | - |
| 1778028387 | 23.89° C | 67% | 1014.6 hPa | 0 mm | - | - | - |
| 1778028350 | 24.44° C | 67% | 1014.7 hPa | 0 mm | - | - | - |
| 1778028087 | 24.44° C | 67% | 1014.7 hPa | 0 mm | - | - | - |
| 1778028004 | 24.44° C | 67% | 1014.6 hPa | 0 mm | - | - | - |
| 1778027787 | 24.44° C | 67% | 1014.6 hPa | 0 mm | - | - | - |
| 1778027487 | 24.44° C | 66% | 1014.5 hPa | 0 mm | - | - | - |
| 1778027187 | 24.44° C | 66% | 1014.5 hPa | 0 mm | - | - | - |
| 1778026894 | 25° C | 65% | 1014.4 hPa | 0 mm | - | - | - |
| 1778026887 | 25° C | 65% | 1014.4 hPa | 0 mm | - | - | - |
| 1778026587 | 25° C | 65% | 1014.4 hPa | 0 mm | - | - | - |
| 1778026287 | 25° C | 65% | 1014.3 hPa | 0 mm | - | - | - |
| 1778025471 | 26.11° C | 62% | 1014 hPa | 0 mm | - | - | - |
| 1778024967 | 26.67° C | 61% | 1013.9 hPa | 0 mm | - | - | - |
| 1778024927 | 26.67° C | 61% | 1013.9 hPa | 0 mm | - | - | - |
* Rain latest hour (hover to see other rain measurements)
** Current wind speed in m/s (hover to see current wind gust speed)